TimeEDT,TemperatureF,Dew PointF,Humidity,Sea Level PressureIn,VisibilityMPH,Wind Direction,Wind SpeedMPH,Gust SpeedMPH,PrecipitationIn,Events,Conditions,WindDirDegrees,DateUTC
12:15 AM,44.2,25.7,48,30.29,10.0,NW,4.6,-,N/A,,Clear,320,2013-03-29 04:15:00
12:35 AM,43.9,25.7,49,30.29,10.0,NNW,3.5,-,N/A,,Clear,330,2013-03-29 04:35:00
12:55 AM,42.8,26.1,52,30.30,10.0,Calm,Calm,-,N/A,,Clear,0,2013-03-29 04:55:00
1:15 AM,41.5,26.2,55,30.30,10.0,NNW,3.5,-,N/A,,Clear,340,2013-03-29 05:15:00
1:35 AM,40.6,26.2,57,30.30,10.0,Calm,Calm,-,N/A,,Clear,0,2013-03-29 05:35:00
1:55 AM,40.1,26.6,59,30.30,10.0,Calm,Calm,-,N/A,,Clear,0,2013-03-29 05:55:00
2:15 AM,38.3,26.4,62,30.30,10.0,Calm,Calm,-,N/A,,Clear,0,2013-03-29 06:15:00
2:35 AM,37.9,27.1,65,30.30,10.0,Calm,Calm,-,N/A,,Clear,0,2013-03-29 06:35:00
2:55 AM,37.2,26.6,65,30.29,10.0,Calm,Calm,-,N/A,,Clear,0,2013-03-29 06:55:00
3:15 AM,36.5,26.4,67,30.29,10.0,Calm,Calm,-,N/A,,Clear,0,2013-03-29 07:15:00
3:35 AM,36.7,25.7,64,30.29,10.0,Calm,Calm,-,N/A,,Clear,0,2013-03-29 07:35:00
3:55 AM,35.2,26.6,71,30.29,10.0,Calm,Calm,-,N/A,,Clear,0,2013-03-29 07:55:00
4:15 AM,35.1,26.6,71,30.29,10.0,Calm,Calm,-,N/A,,Clear,0,2013-03-29 08:15:00
4:35 AM,33.8,26.8,75,30.29,10.0,Calm,Calm,-,N/A,,Clear,0,2013-03-29 08:35:00
4:55 AM,33.4,27.1,78,30.29,10.0,Calm,Calm,-,N/A,,Clear,0,2013-03-29 08:55:00
5:15 AM,33.3,26.8,77,30.29,10.0,Calm,Calm,-,N/A,,Clear,0,2013-03-29 09:15:00
5:35 AM,32.9,28.2,83,30.29,10.0,Calm,Calm,-,N/A,,Clear,0,2013-03-29 09:35:00
5:55 AM,32.7,27.1,80,30.30,10.0,Calm,Calm,-,N/A,,Clear,0,2013-03-29 09:55:00
6:15 AM,31.8,26.2,80,30.30,10.0,Calm,Calm,-,N/A,,Clear,0,2013-03-29 10:15:00
6:35 AM,31.1,26.1,82,30.31,10.0,Calm,Calm,-,N/A,,Clear,0,2013-03-29 10:35:00
7:15 AM,30.7,26.4,84,30.32,10.0,Calm,Calm,-,N/A,,Clear,0,2013-03-29 11:15:00
7:35 AM,31.1,26.2,82,30.32,10.0,Calm,Calm,-,N/A,,Clear,0,2013-03-29 11:35:00
7:55 AM,32.0,27.1,82,30.33,10.0,Calm,Calm,-,N/A,,Clear,0,2013-03-29 11:55:00
8:15 AM,35.1,27.5,74,30.34,10.0,Calm,Calm,-,N/A,,Clear,0,2013-03-29 12:15:00
8:35 AM,38.3,29.7,71,30.34,10.0,Calm,Calm,-,N/A,,Clear,0,2013-03-29 12:35:00
9:15 AM,43.2,28.8,57,30.34,10.0,NW,3.5,-,N/A,,Clear,320,2013-03-29 13:15:00
9:35 AM,45.7,28.8,52,30.35,10.0,NW,3.5,-,N/A,,Clear,320,2013-03-29 13:35:00
10:15 AM,49.3,25.7,40,30.34,10.0,Calm,Calm,-,N/A,,Clear,0,2013-03-29 14:15:00
10:35 AM,50.7,23.9,35,30.34,10.0,Calm,Calm,-,N/A,,Clear,0,2013-03-29 14:35:00
10:55 AM,52.0,24.8,35,30.33,10.0,NW,4.6,-,N/A,,Clear,320,2013-03-29 14:55:00
11:15 AM,52.9,25.2,34,30.33,10.0,Calm,Calm,-,N/A,,Clear,0,2013-03-29 15:15:00
11:35 AM,53.8,24.3,32,30.33,10.0,NW,4.6,-,N/A,,Clear,320,2013-03-29 15:35:00
11:55 AM,54.0,23.5,31,30.33,10.0,WNW,8.1,-,N/A,,Clear,300,2013-03-29 15:55:00
12:15 PM,54.1,23.9,31,30.32,10.0,NNW,8.1,-,N/A,,Clear,330,2013-03-29 16:15:00
12:35 PM,54.9,24.1,30,30.31,10.0,SW,5.8,-,N/A,,Clear,230,2013-03-29 16:35:00
12:55 PM,56.1,24.6,30,30.31,10.0,North,5.8,-,N/A,,Clear,350,2013-03-29 16:55:00
1:15 PM,56.1,23.9,29,30.30,10.0,SW,4.6,-,N/A,,Clear,230,2013-03-29 17:15:00
1:35 PM,56.7,23.2,27,30.29,10.0,NW,8.1,-,N/A,,Clear,320,2013-03-29 17:35:00
1:55 PM,57.7,23.2,26,30.27,10.0,NW,11.5,-,N/A,,Clear,310,2013-03-29 17:55:00
2:15 PM,57.4,23.5,27,30.27,10.0,WNW,5.8,18.4,N/A,,Clear,290,2013-03-29 18:15:00
2:35 PM,58.3,23.4,26,30.26,10.0,WSW,8.1,-,N/A,,Clear,250,2013-03-29 18:35:00
2:55 PM,59.5,23.5,25,30.25,10.0,West,8.1,-,N/A,,Clear,280,2013-03-29 18:55:00
3:15 PM,59.7,24.3,26,30.24,10.0,West,11.5,18.4,N/A,,Clear,280,2013-03-29 19:15:00
3:35 PM,60.6,23.5,24,30.23,10.0,West,10.4,18.4,N/A,,Clear,270,2013-03-29 19:35:00
3:55 PM,60.1,23.7,25,30.22,10.0,WSW,8.1,-,N/A,,Clear,250,2013-03-29 19:55:00
4:15 PM,61.0,24.1,24,30.22,10.0,WNW,8.1,18.4,N/A,,Clear,290,2013-03-29 20:15:00
4:35 PM,60.6,23.2,24,30.20,10.0,NW,8.1,-,N/A,,Clear,310,2013-03-29 20:35:00
4:55 PM,61.2,23.2,23,30.20,10.0,West,6.9,-,N/A,,Clear,280,2013-03-29 20:55:00
5:15 PM,61.2,22.6,23,30.20,10.0,WSW,4.6,-,N/A,,Clear,240,2013-03-29 21:15:00
5:35 PM,61.5,22.6,23,30.20,10.0,WSW,10.4,-,N/A,,Clear,250,2013-03-29 21:35:00
5:55 PM,61.5,22.8,23,30.20,10.0,West,8.1,-,N/A,,Clear,270,2013-03-29 21:55:00
6:15 PM,61.5,22.8,23,30.19,10.0,West,6.9,-,N/A,,Clear,260,2013-03-29 22:15:00
6:35 PM,61.2,21.9,22,30.19,10.0,WNW,5.8,-,N/A,,Clear,290,2013-03-29 22:35:00
6:55 PM,61.0,23.0,23,30.20,10.0,West,5.8,-,N/A,,Clear,280,2013-03-29 22:55:00
7:15 PM,59.0,25.3,28,30.20,10.0,Calm,Calm,-,N/A,,Clear,0,2013-03-29 23:15:00
7:35 PM,57.7,25.5,29,30.20,10.0,Calm,Calm,-,N/A,,Scattered Clouds,0,2013-03-29 23:35:00
7:55 PM,54.3,29.5,39,30.21,10.0,Calm,Calm,-,N/A,,Scattered Clouds,0,2013-03-29 23:55:00
8:15 PM,54.1,29.1,38,30.21,10.0,Calm,Calm,-,N/A,,Scattered Clouds,0,2013-03-30 00:15:00
8:35 PM,53.8,29.7,40,30.22,10.0,WSW,3.5,-,N/A,,Mostly Cloudy,250,2013-03-30 00:35:00
9:15 PM,52.2,32.2,47,30.22,10.0,SSW,3.5,-,N/A,,Mostly Cloudy,200,2013-03-30 01:15:00
9:35 PM,52.2,31.3,45,30.22,10.0,SW,3.5,-,N/A,,Mostly Cloudy,220,2013-03-30 01:35:00
9:55 PM,50.7,32.5,50,30.23,10.0,Calm,Calm,-,N/A,,Mostly Cloudy,0,2013-03-30 01:55:00
10:15 PM,49.3,32.5,53,30.23,10.0,South,5.8,-,N/A,,Overcast,180,2013-03-30 02:15:00
10:35 PM,50.9,33.1,51,30.24,10.0,South,4.6,-,N/A,,Overcast,190,2013-03-30 02:35:00
10:55 PM,50.9,34.0,52,30.24,10.0,South,4.6,-,N/A,,Overcast,190,2013-03-30 02:55:00
11:15 PM,50.4,34.7,55,30.24,10.0,South,4.6,-,N/A,,Overcast,180,2013-03-30 03:15:00
11:35 PM,50.0,35.1,57,30.24,10.0,SSW,4.6,-,N/A,,Scattered Clouds,200,2013-03-30 03:35:00
11:55 PM,50.0,35.6,58,30.23,10.0,SSW,4.6,-,N/A,,Scattered Clouds,200,2013-03-30 03:55:00